Wind_Speed
11 14 14 13 13 12 11 11 12 12 12 13 14 13 13 13 13 12 12 12 12 11 10 9 9 9 9 9 9 9 8 9 9 8 9 9 9 10 9 8 8 7 6 5 3 2 2 2 2 2 1 1 2 1 2 2 2 2 2 3 3 3 3 3 4 3 2 1 1 2 3 4 4 3 3 4 4 4 4 4 4 4 4 4 4
11 13 14 14 13 13 12 11 12 13 13 14 14 14 14 13 14 13 13 12 12 12 11 10 9 9 9 9 9 9 8 8 8 8 8 9 10 9 9 8 8 7 6 5 4 3 3 2 2 2 1 1 1 1 1 1 1 2 2 2 1 2 3 4 5 4 2 1 0 2 4 5 4 4 4 4 4 3 4 5 5 6 6 5 4
11 13 14 15 13 13 12 11 12 13 14 14 14 15 15 14 14 14 14 13 12 12 11 10 10 9 8 8 8 8 9 8 7 7 7 8 10 9 8 8 8 7 6 5 4 4 2 2 2 2 2 1 1 1 1 1 1 1 1 2 2 1 1 3 5 5 4 2 1 2 2 4 3 4 4 3 2 2 2 3 4 5 5 4 4
11 13 14 15 14 14 13 11 12 12 13 14 15 15 15 15 15 14 15 14 13 13 12 11 10 9 7 7 7 7 8 7 7 7 7 8 10 10 8 8 8 7 6 6 4 3 3 2 2 2 1 1 0 0 0 1 1 0 1 2 3 3 2 3 4 5 5 3 2 1 1 2 2 3 3 2 2 2 1 2 2 4 5 4 5
12 13 13 14 15 14 13 12 12 12 13 14 15 15 15 15 15 15 15 15 14 14 13 11 11 10 8 8 7 7 8 8 8 9 9 9 10 10 9 9 8 7 6 5 4 3 3 3 2 2 1 1 1 1 1 1 1 1 1 2 2 3 4 3 3 3 4 4 4 2 1 1 0 2 2 1 3 3 1 1 1 4 4 4 5
12 13 13 14 15 14 14 13 13 13 13 13 14 15 15 16 16 15 15 15 15 15 15 13 12 12 11 10 10 9 9 10 10 10 10 10 10 10 10 9 8 7 6 5 4 3 3 3 2 1 1 1 1 1 1 2 2 2 1 1 2 3 4 4 2 2 3 2 2 2 1 1 2 3 3 1 3 4 2 1 0 3 4 3 5
12 13 13 13 15 15 15 14 14 13 13 13 13 14 15 16 17 16 15 15 15 16 16 14 13 13 12 12 12 11 10 10 10 9 9 9 9 9 9 9 9 7 6 5 4 3 3 3 2 1 1 2 1 1 2 2 2 2 1 1 2 3 3 4 3 2 2 1 1 1 1 1 2 3 3 2 2 3 3 4 1 1 3 3 4
12 13 13 14 15 16 15 15 15 14 13 14 13 14 15 16 17 17 15 15 15 16 18 16 14 14 13 12 11 11 11 10 10 9 8 8 8 8 8 9 9 8 7 5 5 4 3 3 2 2 2 2 2 3 3 2 1 1 1 1 2 1 1 2 4 4 3 1 1 3 2 1 2 2 3 4 4 2 3 6 4 1 3 2 3
12 13 14 14 16 16 16 16 16 15 14 14 14 14 15 16 17 17 16 15 15 17 18 17 16 15 14 13 11 11 10 9 10 9 8 8 8 8 7 7 8 8 8 6 6 5 4 3 3 3 3 3 3 3 3 2 1 1 0 0 0 1 1 1 2 3 5 3 1 3 4 4 4 4 3 4 5 2 2 5 6 3 3 3 3
12 13 14 16 17 17 17 16 16 15 14 14 15 14 15 16 17 18 17 16 16 17 18 18 17 15 15 14 12 12 10 9 10 9 9 8 8 8 7 7 7 8 9 8 8 7 6 5 4 4 4 4 4 3 3 3 3 2 2 1 1 1 1 2 3 3 4 5 3 3 4 5 5 5 5 5 5 3 2 6 7 4 4 4 4
13 13 14 17 18 18 17 17 16 15 14 14 15 15 15 16 17 18 17 17 17 18 18 18 18 16 15 14 13 13 12 11 10 10 10 9 9 8 8 7 7 7 8 8 9 9 8 7 6 5 4 4 4 4 4 4 4 4 3 2 2 2 3 3 4 5 5 5 6 4 5 6 5 4 6 5 5 5 5 6 7 6 6 6 5
13 13 13 15 17 17 17 17 16 15 14 14 15 16 16 16 17 18 17 17 18 19 19 18 18 17 16 15 14 14 13 12 11 11 10 10 10 9 8 8 7 7 7 8 9 9 9 8 7 6 5 5 5 5 4 4 4 3 3 3 3 3 4 4 5 6 6 6 7 6 7 7 6 6 6 5 4 4 5 6 7 7 7 7 6
14 13 14 13 13 15 17 16 15 15 16 16 16 16 16 16 17 18 18 18 18 19 20 19 19 18 17 16 16 15 14 13 12 11 11 11 11 10 9 9 8 8 8 9 9 9 9 9 8 8 7 6 6 5 5 5 4 4 4 4 4 4 4 5 5 6 7 7 8 7 8 8 7 6 7 7 6 5 6 7 7 7 8 8 6
14 13 14 13 13 16 17 16 16 17 18 17 17 17 17 17 18 18 18 18 18 19 19 20 19 18 17 17 16 16 15 14 13 12 12 12 11 11 11 10 10 10 9 9 9 9 9 9 9 9 8 8 7 6 6 6 6 5 5 5 5 4 4 5 6 7 7 7 8 8 9 9 8 7 7 8 8 7 7 7 6 7 9 9 7
13 13 15 15 16 18 17 17 18 18 19 18 17 17 17 18 19 19 19 19 19 19 19 20 19 19 18 17 17 16 16 15 14 13 12 12 12 12 12 11 10 10 9 8 8 9 9 9 9 9 9 9 8 7 7 7 7 6 6 6 6 5 5 6 7 7 8 7 8 8 9 9 9 8 8 8 8 8 8 7 6 6 6 8 7
13 14 14 16 18 18 17 18 19 19 19 18 18 18 19 18 20 21 20 19 19 19 19 19 19 19 18 18 18 17 16 16 15 14 13 13 12 12 12 12 11 9 9 9 8 9 9 9 10 10 10 10 9 8 8 7 7 7 7 6 7 7 6 7 7 8 8 8 8 9 9 10 9 9 9 9 8 7 8 7 6 6 5 5 6
10 12 13 15 17 18 18 19 19 19 19 19 19 20 20 20 20 21 21 20 19 20 20 19 19 18 19 19 19 18 18 17 16 15 15 14 13 13 13 13 12 11 10 9 9 9 9 10 10 10 10 10 10 9 9 8 8 8 8 7 8 8 7 7 8 8 9 9 9 9 9 9 9 9 10 10 8 7 8 8 7 7 5 4 5
4 8 10 12 15 16 18 18 19 19 19 20 21 21 20 20 21 21 22 22 22 21 20 19 19 18 18 19 20 19 18 18 17 16 15 15 14 14 14 13 13 12 11 10 9 9 10 10 9 9 10 10 10 10 9 9 9 9 9 8 8 8 7 8 8 9 9 9 10 10 10 10 9 10 10 10 8 7 8 9 8 7 6 6 6
0 3 5 8 11 13 14 16 16 17 18 19 21 21 20 20 20 20 22 24 23 21 20 19 19 18 18 18 19 19 18 18 17 16 15 15 15 15 15 14 13 13 12 11 10 10 10 10 10 10 10 11 11 11 10 10 10 10 10 10 9 8 8 8 9 9 10 10 10 11 10 10 10 10 10 11 10 9 9 9 9 8 7 7 7
3 1 3 4 6 9 11 13 13 14 16 17 18 18 19 18 18 19 20 21 22 20 20 20 20 19 18 17 18 18 18 18 17 16 16 16 16 15 15 14 14 13 13 13 12 12 12 11 11 11 11 12 12 11 11 11 11 11 11 10 9 8 8 9 9 10 10 10 10 11 11 11 10 10 10 11 10 10 10 10 9 9 9 9 9
3 2 1 2 3 6 9 11 12 13 13 14 15 16 16 16 16 17 18 19 21 21 21 20 20 19 19 18 18 18 18 18 17 17 17 16 16 15 15 14 14 14 14 13 13 13 13 12 12 11 12 12 12 11 11 11 11 11 11 11 10 9 9 10 10 10 11 10 10 10 11 11 11 11 11 11 11 11 10 11 10 10 10 10 9
0 1 1 1 3 5 7 8 10 11 12 14 14 14 15 16 16 17 18 19 20 20 20 19 18 18 19 18 18 17 17 18 18 18 18 18 17 16 15 15 14 14 14 14 14 14 14 14 13 13 12 12 12 11 11 11 11 11 12 12 12 11 11 11 11 11 11 11 11 11 11 11 12 12 12 12 12 12 11 11 11 10 10 10 9
2 1 1 1 1 4 6 7 8 10 11 13 14 13 14 15 15 16 17 18 18 18 18 17 17 17 18 18 17 17 17 18 18 19 20 19 18 17 16 16 15 15 15 15 14 14 14 14 15 14 13 13 13 12 12 12 12 12 12 12 12 12 12 12 12 12 12 12 12 12 12 12 12 11 11 12 12 12 12 11 11 10 10 10 8
3 2 2 2 1 1 4 4 7 9 9 9 10 11 12 13 14 15 16 17 17 17 17 17 16 16 17 17 17 17 17 18 18 19 20 20 19 18 17 17 17 16 15 15 15 15 14 14 15 15 15 15 14 14 14 13 13 13 14 13 13 13 13 13 13 12 12 12 12 12 12 12 12 11 11 11 11 11 11 11 11 10 10 10 9
4 3 4 4 4 1 2 4 2 4 6 7 7 8 10 11 13 14 15 15 15 16 16 16 16 16 16 17 17 17 17 18 18 18 19 20 20 19 18 18 17 17 16 16 15 15 15 15 15 16 16 16 15 15 15 15 15 14 14 14 14 13 14 14 14 13 12 12 13 13 13 12 12 12 12 12 11 11 11 11 11 10 10 10 9
6 4 3 3 4 4 4 6 6 2 3 4 4 5 7 11 13 14 14 14 15 16 17 17 17 16 16 17 17 17 17 17 18 18 19 19 19 19 19 18 18 18 18 17 16 16 16 16 17 16 16 16 16 15 15 15 15 15 15 15 14 14 14 14 14 14 14 13 13 13 13 13 13 13 13 12 11 10 11 11 11 10 10 10 9
7 6 4 3 4 6 7 6 6 5 3 2 3 2 3 6 10 12 13 14 15 17 18 18 17 17 17 18 19 19 18 18 17 17 17 19 19 19 20 19 18 18 18 18 17 17 16 16 17 17 17 16 16 15 15 15 15 15 15 15 15 14 14 15 15 15 15 14 14 14 14 14 13 13 13 12 12 11 11 11 11 10 10 11 12
9 9 9 8 7 8 9 7 6 6 5 3 2 3 4 6 8 9 11 14 15 16 18 18 18 19 19 20 19 18 18 17 15 14 15 16 18 18 19 19 18 18 19 18 18 17 17 16 17 17 17 16 16 15 15 15 15 15 15 15 15 15 15 15 15 15 15 15 15 15 15 15 14 14 13 13 12 11 10 11 11 11 11 11 12
11 11 12 11 10 10 10 10 9 10 9 4 2 6 7 8 9 8 11 15 16 15 16 17 18 19 19 19 17 16 16 16 16 18 18 18 19 19 18 18 18 18 18 18 18 17 17 16 16 16 16 16 16 16 15 15 15 15 15 15 15 15 15 15 15 15 15 16 16 15 15 15 14 13 13 14 14 13 13 13 12 12 10 9 12
11 11 11 11 11 11 11 11 11 11 12 10 6 3 4 6 7 8 10 13 15 16 15 16 18 20 19 18 16 16 17 17 18 21 21 19 19 20 19 17 17 17 17 17 18 17 17 17 16 16 16 16 16 16 15 16 17 15 14 14 14 14 14 14 15 15 15 16 16 16 16 15 15 15 15 18 18 17 16 16 15 14 13 11 13
12 11 12 11 12 12 12 12 12 12 11 12 11 8 4 4 5 7 10 11 13 15 13 13 16 18 17 16 16 17 18 17 17 18 17 17 19 20 20 18 15 16 17 17 17 18 18 17 17 16 17 17 16 15 16 18 18 16 15 14 14 14 14 14 15 16 16 17 17 17 16 16 16 17 18 20 20 19 18 18 18 18 17 16 15
12 12 13 12 12 13 13 13 13 13 13 11 9 9 8 5 4 6 8 10 12 14 13 11 12 13 14 14 14 16 17 17 17 18 18 20 21 21 21 20 18 17 18 18 18 18 18 18 17 17 17 17 16 16 18 19 18 16 15 15 15 16 16 15 15 16 17 17 17 17 17 16 16 16 16 17 19 20 20 20 21 20 19 18 18
12 12 12 12 12 14 15 15 15 14 14 12 9 8 8 7 4 4 4 6 9 11 11 11 10 11 12 13 13 14 16 18 20 20 19 21 22 20 19 19 20 19 18 17 17 18 17 17 17 17 17 17 17 16 16 16 16 16 15 14 14 15 16 17 18 19 18 17 16 17 17 17 16 15 13 14 16 17 19 20 21 21 21 20 20
11 11 12 13 14 15 15 16 15 13 13 12 10 9 7 6 5 5 5 4 5 6 7 9 10 10 11 12 13 15 16 18 19 19 18 20 22 22 20 18 19 19 18 17 16 15 15 14 13 14 14 14 13 12 13 14 15 15 14 13 13 13 15 17 19 19 19 17 16 16 16 17 17 15 13 12 13 14 16 17 18 19 18 18 19
10 10 11 13 15 16 17 16 14 13 12 12 12 11 10 9 8 9 10 10 9 9 8 7 8 11 12 12 13 14 15 17 19 18 18 19 19 20 19 16 17 18 17 15 14 13 13 13 13 12 12 13 11 8 8 12 14 14 13 12 12 12 14 16 18 18 18 17 18 19 19 19 18 16 14 14 15 14 13 14 15 15 16 16 17
10 10 11 13 14 15 16 14 12 13 13 13 13 14 14 14 14 13 13 14 16 17 16 14 12 10 11 12 14 14 14 16 18 17 18 18 17 16 15 14 15 17 16 13 11 11 12 14 14 12 12 12 11 9 10 10 12 13 15 14 12 10 12 14 16 18 18 17 19 22 22 22 20 17 15 17 19 17 14 14 15 15 16 16 15
12 12 12 12 13 14 14 14 14 15 15 15 15 17 18 18 19 18 17 16 17 17 17 17 17 15 10 6 7 9 10 12 14 15 17 18 17 15 13 11 12 13 11 9 7 7 10 11 12 11 9 9 11 13 14 14 13 12 11 12 11 11 12 13 15 17 19 20 22 21 20 21 20 17 16 17 19 19 17 16 15 16 16 16 15
11 12 13 12 12 13 13 13 15 16 17 17 17 18 19 21 21 21 20 18 18 17 15 15 18 19 17 12 8 5 1 2 5 8 12 15 16 15 12 10 11 10 9 8 8 7 8 8 8 9 8 7 8 10 11 11 10 9 7 6 7 8 10 12 14 16 19 21 20 19 20 21 19 16 15 16 18 19 17 15 15 16 17 17 17
11 11 12 12 12 12 12 13 14 15 16 17 18 18 19 21 21 21 21 21 19 17 16 16 18 22 22 19 17 14 10 7 6 4 1 5 9 12 12 8 7 7 6 6 7 7 7 7 6 7 8 7 8 9 10 10 10 10 9 6 6 7 9 11 13 15 17 19 17 16 18 19 17 16 16 16 18 20 18 16 15 17 18 19 18
10 10 11 11 11 12 13 14 14 14 14 16 17 18 18 18 17 18 20 20 18 18 20 19 19 22 25 25 23 21 19 16 13 10 7 4 0 6 9 7 6 7 5 4 5 5 3 4 4 4 4 4 4 6 7 8 8 9 9 8 6 8 11 12 12 13 16 18 17 17 17 16 13 13 14 15 17 20 21 19 18 18 19 20 18
9 9 9 10 11 12 13 13 13 13 14 14 15 16 16 15 15 16 17 16 14 16 20 21 21 22 25 25 24 23 23 22 18 14 11 9 6 4 6 4 5 6 6 5 3 3 1 0 1 1 1 2 3 3 5 7 7 8 9 8 6 7 11 13 13 13 15 16 17 18 17 15 12 12 14 16 17 19 21 22 21 22 23 23 20
9 9 9 10 11 12 12 13 13 13 13 14 14 15 15 14 15 16 14 13 13 14 16 18 20 21 21 22 21 21 20 20 18 15 13 12 10 8 6 3 3 5 7 7 5 4 3 2 1 1 1 2 3 3 3 4 5 5 6 6 4 7 11 12 13 13 14 14 15 15 15 17 17 18 19 21 22 23 24 25 26 25 24 25 25
9 9 9 10 11 11 12 12 12 12 12 13 13 14 14 14 15 14 12 12 12 12 13 14 16 17 18 19 19 18 16 15 14 12 10 10 11 10 9 6 4 6 9 12 11 9 7 5 5 4 3 2 2 2 1 1 1 1 2 2 1 3 6 8 9 10 10 11 12 13 14 16 19 20 21 23 26 27 27 28 28 26 24 24 25
9 9 10 10 10 11 11 11 12 12 12 12 12 13 13 14 14 12 11 11 11 11 12 13 13 13 15 16 18 18 16 14 12 11 10 10 11 12 12 11 10 11 13 15 14 12 10 10 9 8 7 6 6 6 5 5 4 4 4 3 2 2 3 4 6 7 7 8 10 12 14 16 17 18 19 20 23 26 28 29 27 24 23 23 25
9 9 9 9 10 11 11 11 11 11 11 12 12 12 12 12 11 10 10 11 11 12 12 13 13 12 13 13 15 17 17 16 14 13 13 12 12 12 14 15 16 15 14 15 14 12 12 12 11 10 10 9 9 8 7 7 7 6 6 5 5 4 5 6 7 7 7 8 10 12 15 18 18 16 16 16 16 17 21 24 24 22 21 22 25
10 9 9 9 10 11 12 12 12 11 11 12 11 11 11 10 9 10 10 10 10 11 12 12 12 13 13 14 14 14 15 16 15 14 15 15 14 13 12 13 15 14 13 13 13 11 11 11 11 11 10 9 8 8 7 7 8 8 7 7 7 7 8 9 9 9 9 9 11 12 14 16 15 13 13 12 12 12 13 15 18 20 20 20 24
9 9 8 9 10 11 12 13 12 11 11 11 11 11 10 9 9 9 9 9 9 10 10 11 12 12 12 14 14 14 14 15 15 14 14 16 18 17 13 12 12 12 11 12 11 11 10 9 9 9 9 8 8 8 8 8 8 9 8 8 7 8 8 9 10 11 11 11 10 9 10 12 13 12 11 11 10 10 9 8 9 11 12 13 16
8 8 8 9 10 11 11 12 12 11 11 12 11 11 10 10 10 9 9 9 9 9 10 10 10 10 11 11 12 12 13 14 16 16 15 14 14 15 15 14 13 11 10 10 10 11 11 10 9 9 8 7 7 8 9 9 9 9 9 9 7 7 8 9 9 10 11 9 7 7 7 7 8 9 8 7 7 8 7 5 4 2 3 3 4
7 7 8 8 9 10 10 11 11 11 11 12 11 11 10 10 10 9 9 8 8 8 9 9 8 9 8 8 9 10 10 11 13 16 17 16 14 13 12 13 14 12 10 9 9 9 9 9 9 9 7 6 5 6 8 10 11 11 12 11 9 8 8 8 7 9 9 8 6 5 6 4 5 6 6 6 6 6 6 7 7 5 5 8 11
7 6 7 7 8 9 10 10 9 9 10 11 11 10 10 9 9 9 9 8 7 7 7 8 8 8 8 7 7 8 9 8 8 10 12 14 15 15 13 13 13 14 13 11 11 10 10 10 9 8 8 7 6 7 9 10 12 12 13 12 11 9 8 7 7 6 7 7 5 5 4 4 5 5 6 6 6 7 8 9 11 11 13 16 19
6 5 5 6 6 7 8 9 8 9 9 9 9 9 9 9 9 9 9 8 8 7 7 7 7 8 8 7 7 7 7 7 7 7 7 8 10 12 13 13 13 13 13 13 13 13 13 13 11 10 10 10 9 10 10 11 11 12 13 13 11 9 8 8 8 6 5 5 5 4 3 4 4 5 6 7 7 8 9 11 12 14 16 20 22
Wind_Direction
177 177 181 181 177 171 169 169 168 168 168 167 170 172 171 171 168 167 167 163 161 163 165 164 163 162 161 159 157 154 152 154 155 156 157 153 150 155 156 156 157 157 160 161 159 155 142 135 138 139 130 105 88 75 69 62 28 10 360 342 350 8 10 21 22 351 274 181 186 204 171 177 173 168 201 202 189 181 180 193 205 203 193 197 213
178 177 181 184 180 174 173 174 173 170 169 171 174 175 174 174 172 170 170 169 169 169 169 169 169 169 168 167 162 157 159 163 160 161 160 154 155 158 159 160 163 164 165 164 165 169 166 165 161 154 139 102 90 83 63 51 24 14 348 333 350 9 13 22 15 338 278 115 35 232 173 169 175 186 201 204 196 185 189 192 202 214 205 196 203
182 178 181 185 182 179 178 178 178 173 173 176 176 175 175 175 174 174 174 173 173 172 173 175 173 174 174 170 167 162 165 168 162 163 163 159 162 165 165 168 171 171 171 171 173 175 177 174 164 156 139 98 101 106 73 84 57 349 343 12 345 307 71 49 18 352 346 29 222 237 185 171 176 201 199 186 194 183 196 204 203 219 210 198 211
187 184 182 184 184 184 183 182 181 178 179 179 177 177 177 177 176 176 177 176 176 174 175 176 174 175 176 174 170 164 167 169 164 166 169 165 168 172 175 175 177 180 178 179 179 174 173 171 162 155 139 115 130 121 157 167 146 209 69 41 349 325 35 58 36 14 7 2 293 264 228 206 184 205 194 179 217 193 197 235 211 231 219 199 225
193 190 185 184 185 187 187 185 185 184 185 182 179 178 178 177 177 176 177 178 178 177 176 174 172 174 173 173 172 167 171 177 177 176 176 175 177 179 181 182 184 187 185 184 182 167 165 165 164 164 149 153 172 196 203 185 174 162 108 63 24 3 3 18 39 38 32 22 359 360 282 238 357 290 242 206 262 261 266 300 249 250 236 209 242
198 196 191 188 187 188 188 188 190 191 189 187 182 179 178 176 176 177 177 179 180 178 178 176 175 177 176 177 178 178 180 184 186 184 179 181 183 180 182 186 191 195 195 193 182 166 167 167 175 191 170 171 184 223 221 202 192 157 108 63 50 30 5 355 14 54 50 31 15 58 61 324 344 314 290 248 265 275 285 282 209 267 254 225 246
199 200 198 193 190 190 191 192 196 196 191 189 185 180 176 174 175 177 177 179 180 179 179 180 181 183 184 185 186 186 187 188 190 189 183 184 185 182 183 189 196 202 202 198 190 176 176 183 200 221 210 197 195 224 228 212 184 134 92 54 41 36 24 352 339 16 28 323 320 90 126 322 335 316 304 307 253 249 284 283 251 270 267 245 257
198 199 201 197 193 194 194 195 199 198 192 189 187 181 176 174 174 177 179 179 179 179 180 182 184 186 189 191 191 193 194 189 188 192 190 187 189 188 189 192 198 208 209 205 202 198 199 208 222 232 230 218 214 226 229 219 184 116 84 64 48 23 30 356 335 339 322 317 345 308 292 290 290 293 313 319 292 293 354 309 292 299 286 303 323
203 199 200 199 197 197 197 197 200 198 192 190 189 182 176 174 174 175 179 180 180 180 182 186 187 187 191 193 195 197 198 193 191 195 195 194 197 196 197 199 201 208 214 214 213 211 214 219 230 234 234 230 228 233 230 219 216 170 160 327 54 329 335 314 311 309 303 316 342 308 309 300 287 288 284 283 287 324 33 289 281 296 290 308 323
207 204 199 199 199 199 198 198 200 197 193 193 190 183 177 176 175 177 179 181 183 182 184 188 189 190 194 196 196 196 194 192 191 193 194 196 200 199 200 205 206 209 212 215 218 218 219 225 233 234 233 233 233 240 240 226 221 217 221 237 250 276 270 264 270 277 292 305 304 295 294 289 293 299 288 289 304 315 288 271 285 312 301 298 304
205 207 201 200 201 201 201 200 200 198 195 194 192 187 183 179 178 179 181 183 184 185 187 190 192 194 197 197 197 195 191 190 188 190 192 194 200 201 201 206 209 211 210 212 216 218 221 227 233 235 236 236 235 240 241 232 223 220 219 224 239 258 259 262 267 267 270 279 281 272 266 273 282 287 290 299 304 303 302 298 307 315 307 299 298
201 205 204 202 202 202 202 202 199 198 197 196 195 191 188 185 181 181 184 185 185 188 190 193 195 198 199 199 199 196 193 193 192 193 195 198 203 204 203 205 209 213 212 212 215 216 220 225 232 236 237 237 239 241 242 244 242 236 233 237 235 238 251 258 259 263 264 265 269 268 267 275 279 280 283 284 285 299 303 297 300 305 302 297 298
200 202 205 204 203 201 203 203 198 197 198 198 198 195 192 190 186 183 185 186 187 189 192 195 198 200 201 201 200 199 199 198 197 199 201 204 208 207 205 205 207 212 214 215 217 217 217 222 228 232 236 238 240 244 245 248 251 250 248 245 244 240 247 254 254 260 265 266 272 275 275 277 279 281 284 284 286 286 282 285 296 302 298 296 299
203 201 203 202 202 202 203 202 197 197 200 200 200 198 194 192 190 189 188 188 189 191 193 196 200 202 202 201 200 201 202 203 203 204 206 207 209 210 208 208 209 213 216 216 218 220 219 222 226 229 234 236 236 239 245 245 244 249 252 249 248 248 250 256 257 260 262 262 268 273 276 277 280 284 281 281 284 281 282 293 306 303 296 296 294
207 203 204 202 200 201 201 198 197 199 201 202 200 197 195 193 192 192 192 190 191 192 195 198 201 202 203 203 202 203 204 206 208 209 209 209 209 210 210 212 214 214 216 218 218 222 222 221 223 226 229 230 232 235 239 242 239 241 247 249 252 252 252 256 258 261 262 260 263 269 274 275 277 279 277 279 286 289 293 301 305 300 296 298 299
208 205 205 205 202 201 199 198 199 201 202 202 199 195 195 194 193 195 196 195 193 194 197 200 202 203 204 205 205 205 206 207 207 209 210 211 210 210 210 213 218 217 217 219 220 221 222 222 223 225 225 225 227 230 236 239 236 237 242 244 249 252 251 253 258 261 263 263 263 263 268 272 273 276 278 281 285 287 291 292 288 284 289 299 300
219 211 207 207 205 202 201 203 204 204 203 201 197 195 196 194 194 195 198 199 198 198 200 201 202 204 205 206 207 207 209 209 209 208 209 211 212 212 212 213 218 221 220 221 219 218 218 220 224 225 222 221 224 227 232 235 234 239 242 241 246 252 251 252 257 261 263 265 266 264 266 271 274 273 274 277 277 275 277 275 270 270 275 284 291
246 222 209 208 207 204 204 207 209 208 205 200 197 196 197 196 196 196 198 201 203 202 203 202 203 206 207 208 209 210 212 213 213 211 210 212 212 213 216 216 217 219 220 221 218 215 215 217 223 226 223 221 224 227 230 231 232 237 239 240 243 246 249 251 253 258 261 264 267 269 271 273 275 274 272 273 268 260 264 267 266 267 264 266 282
263 231 213 209 209 208 209 212 211 209 208 204 199 197 198 199 200 201 201 204 206 205 205 205 205 207 210 211 212 212 214 216 217 215 213 214 213 213 216 217 218 217 216 217 218 216 216 216 219 223 223 223 223 227 230 228 230 235 238 240 238 234 240 248 251 254 257 259 261 265 269 270 274 275 275 274 269 260 261 265 264 264 263 261 272
152 196 242 229 215 212 215 218 214 212 212 210 206 203 203 203 202 203 204 205 207 207 206 207 207 209 211 212 213 214 216 218 219 218 216 216 215 215 216 217 218 218 215 214 217 218 218 218 220 222 221 223 224 226 228 227 229 232 236 242 241 234 236 243 249 252 255 256 256 259 262 265 269 272 273 272 267 260 257 261 264 262 261 260 260
159 167 276 311 274 229 216 215 214 215 214 213 213 211 208 205 202 203 203 202 205 208 208 207 208 210 212 213 214 215 217 220 220 220 219 219 218 217 219 218 217 218 217 215 216 216 216 217 221 223 222 223 224 226 228 227 228 230 233 240 244 241 242 247 250 251 253 255 255 256 260 263 265 267 269 269 267 263 256 256 260 259 260 261 258
208 171 209 287 296 267 241 224 212 211 211 210 213 211 208 206 204 202 200 201 205 207 208 208 208 211 213 216 217 217 218 221 222 222 221 221 221 220 220 221 219 218 216 218 218 216 216 217 219 221 221 223 223 225 230 231 232 232 234 240 242 241 243 248 251 250 251 253 252 253 257 259 260 260 262 265 265 265 262 259 259 259 262 265 261
331 218 218 206 257 286 274 243 217 212 214 213 211 209 208 206 203 202 201 203 205 205 206 205 206 210 213 217 220 221 221 222 223 225 224 224 223 220 219 220 222 220 216 217 219 219 217 217 219 219 218 221 222 224 229 233 233 235 237 242 246 246 247 249 251 250 250 250 249 251 254 256 258 258 259 264 266 266 265 264 264 264 267 270 268
8 39 55 78 126 278 297 266 228 219 219 217 211 208 212 212 207 207 207 205 205 204 203 202 204 208 213 217 221 224 226 226 226 226 226 226 226 223 220 219 221 222 219 216 216 219 219 216 218 220 218 220 223 225 228 231 232 233 236 241 245 248 248 249 251 252 251 250 250 252 253 254 257 258 259 262 265 266 264 261 262 262 264 269 269
29 43 67 80 97 118 343 345 296 219 202 211 219 214 217 222 219 216 214 209 205 203 202 203 204 207 212 217 221 224 227 228 229 230 230 229 228 226 223 220 221 222 221 218 214 215 217 216 218 221 221 221 223 225 228 230 232 233 234 238 241 243 245 247 249 250 250 249 250 251 253 253 252 253 255 258 262 264 264 262 261 262 262 262 263
42 41 56 87 91 83 48 19 5 5 161 185 222 236 236 238 234 229 223 214 206 203 202 203 205 207 209 213 219 223 226 227 229 232 233 232 231 230 228 224 222 222 221 220 217 216 215 216 218 220 222 223 225 228 229 231 233 234 234 236 239 240 242 244 246 247 247 248 249 249 250 250 250 251 253 256 260 263 264 263 261 261 262 261 259
51 48 44 71 87 72 55 30 5 353 6 48 39 7 298 268 259 251 240 228 215 206 204 203 203 205 208 212 218 222 223 226 229 230 234 236 234 233 232 229 226 225 224 222 221 219 217 216 217 220 223 224 225 227 229 231 234 236 236 238 240 241 243 243 244 246 247 247 247 247 247 247 247 250 253 255 258 260 262 262 259 257 258 257 257
56 52 45 46 56 61 55 39 13 355 350 344 326 322 317 308 307 297 271 254 237 217 209 208 205 206 212 217 222 223 221 222 226 228 233 239 241 238 234 232 231 229 227 227 225 222 220 219 218 220 223 225 225 226 227 229 233 235 236 238 241 243 244 245 245 246 246 247 248 248 247 247 246 246 250 252 253 259 263 262 262 262 259 259 261
47 49 48 44 43 47 50 46 32 21 23 26 263 266 276 285 297 296 275 265 257 238 221 218 218 218 220 223 222 218 216 215 221 228 232 237 244 246 240 233 231 231 230 228 228 226 223 222 221 222 223 224 225 226 227 228 229 232 236 239 242 245 246 248 249 249 249 248 247 247 248 249 249 247 246 246 247 256 262 261 265 270 269 274 276
39 42 46 44 42 41 41 44 41 30 27 29 20 336 284 278 278 270 262 261 259 249 234 227 230 230 229 229 225 219 218 217 223 232 235 234 237 245 250 245 235 233 233 229 228 228 227 225 222 221 222 224 226 227 227 226 226 229 235 240 243 246 248 250 252 253 254 252 249 249 250 250 250 248 247 249 251 255 257 254 257 263 262 265 272
39 40 43 42 40 39 36 37 38 34 32 24 14 11 1 307 279 266 261 255 252 251 244 236 238 240 237 232 226 222 221 220 223 230 231 229 231 239 251 256 249 240 235 229 227 227 227 228 228 225 224 225 226 225 224 226 231 236 240 241 243 247 247 249 252 252 254 256 254 253 252 250 248 246 248 252 251 250 250 251 254 258 257 252 254
41 40 41 39 35 34 34 34 32 30 33 30 18 17 18 353 299 275 267 260 254 253 252 248 246 245 243 236 227 225 223 220 220 223 223 227 230 230 234 240 244 245 242 232 227 227 226 228 231 233 233 233 231 227 223 228 236 241 243 243 244 249 250 248 248 250 252 253 254 255 255 252 249 246 245 247 246 245 248 253 256 259 260 255 251
46 42 41 40 37 34 32 33 32 29 31 36 38 34 29 21 360 323 292 276 267 262 259 259 256 251 247 240 231 227 224 221 221 223 224 226 226 223 225 228 229 237 245 240 231 227 228 231 235 237 239 240 239 234 227 230 239 243 248 252 249 250 254 250 248 251 253 252 251 253 256 256 254 253 249 245 244 248 254 259 263 264 263 263 260
49 45 43 42 42 39 36 33 29 27 30 37 46 48 41 38 37 33 27 359 315 298 288 277 271 266 257 248 240 235 231 231 232 231 228 224 222 225 230 229 222 225 239 246 241 237 234 234 239 245 252 257 257 247 233 233 242 246 251 258 254 251 253 251 249 251 253 253 252 252 255 257 257 255 251 243 239 247 256 262 265 264 260 260 261
54 49 46 44 43 42 40 35 27 24 30 35 41 48 53 55 57 55 50 43 35 24 5 334 303 286 271 258 250 245 243 243 242 239 232 225 224 227 227 221 213 213 222 234 244 252 251 242 239 246 260 271 285 289 255 235 239 247 253 260 259 254 254 254 256 258 255 251 251 251 253 256 257 252 245 242 244 248 256 260 261 259 256 256 256
60 56 50 46 46 47 45 40 30 26 33 39 44 51 57 59 57 55 53 49 48 45 37 26 9 338 299 270 254 247 246 244 238 236 235 231 230 228 221 214 213 215 218 224 233 252 259 251 245 248 256 257 262 283 286 268 259 265 270 269 261 254 256 259 262 265 261 253 252 252 251 252 254 251 244 246 253 257 260 264 263 260 257 256 254
63 62 58 51 50 52 52 49 42 36 36 43 52 57 60 61 59 58 56 52 49 48 46 41 36 29 15 325 268 248 243 241 236 235 236 231 225 220 212 205 207 210 210 206 206 234 254 253 248 249 256 250 243 255 271 273 271 273 277 272 260 252 256 258 257 260 261 258 255 253 250 249 252 253 251 253 260 263 263 264 263 262 261 257 255
65 64 63 57 52 53 54 53 51 45 41 44 53 60 61 61 60 60 60 56 51 48 47 47 49 50 51 48 44 50 61 255 255 248 237 223 209 197 188 189 196 199 202 194 183 202 233 244 242 239 239 238 239 250 261 266 266 266 269 275 273 264 262 260 258 260 266 265 259 252 249 250 253 257 258 259 263 264 263 260 259 262 260 256 254
69 66 66 61 55 54 55 54 53 51 49 47 53 60 63 62 61 62 62 59 55 52 52 53 56 58 59 59 57 58 62 61 53 47 277 230 198 171 155 159 173 176 192 197 180 184 212 232 242 243 242 242 243 250 258 265 272 274 273 275 278 275 275 274 271 269 272 273 270 263 256 254 257 264 263 260 262 264 262 257 258 261 257 253 254
71 69 69 67 59 56 54 50 48 52 56 54 54 59 61 60 60 60 60 59 57 57 58 58 60 62 63 63 62 60 60 56 53 54 51 23 353 141 132 138 158 157 160 170 157 158 192 231 235 237 251 259 250 248 262 279 291 294 292 289 286 286 287 286 282 274 271 273 274 274 270 267 271 279 275 269 267 266 265 262 258 257 257 257 256
68 66 69 69 62 56 54 50 45 48 56 58 58 59 59 57 57 57 56 55 55 57 59 60 60 61 62 62 62 61 61 59 53 50 50 44 40 76 105 135 175 169 165 165 147 125 110 148 196 181 14 334 307 277 278 291 298 301 301 299 295 292 287 285 287 283 276 275 274 275 278 281 281 279 276 274 270 267 268 268 261 256 255 253 252
70 68 69 71 66 61 57 54 47 45 51 55 56 59 59 58 57 56 53 52 51 52 54 56 57 57 57 58 59 61 63 62 58 52 46 40 36 44 64 97 172 164 149 139 126 123 138 141 132 115 69 11 343 316 286 293 302 306 308 304 292 279 274 277 284 285 281 281 283 283 286 285 280 275 272 271 269 267 268 267 263 260 258 256 253
70 67 69 72 72 67 61 57 52 46 46 49 53 55 56 54 54 53 53 52 51 50 51 54 54 53 53 53 54 56 58 57 55 55 53 46 42 43 53 72 107 118 112 107 106 111 117 106 86 83 97 85 40 24 43 43 19 12 355 342 313 284 282 280 280 281 283 287 291 290 289 286 284 283 279 274 270 267 264 263 262 262 263 262 255
73 67 67 70 72 71 68 63 58 51 46 46 50 54 54 51 48 48 50 53 53 52 55 57 55 54 54 55 53 51 52 54 51 52 56 56 56 56 55 60 70 79 84 87 88 91 91 85 79 73 68 68 65 58 61 63 60 58 52 43 41 1 328 308 290 287 292 294 296 297 299 301 302 300 298 291 280 270 262 261 263 263 265 264 253
86 76 73 73 73 73 72 67 62 57 51 47 48 51 50 46 42 43 50 55 58 59 58 58 58 57 57 58 57 53 52 54 53 51 50 49 49 51 51 53 57 61 66 71 74 78 82 85 84 79 71 68 66 60 57 53 45 35 26 16 5 344 329 320 313 311 309 305 306 309 312 316 318 319 322 319 305 287 271 262 260 261 263 259 246
90 83 80 82 79 74 71 68 63 59 56 52 49 47 43 35 35 44 52 57 60 61 60 58 59 60 58 58 59 57 55 57 57 55 55 55 54 52 48 50 56 61 65 70 73 76 82 82 79 74 67 59 50 43 40 33 22 13 3 350 336 323 316 314 313 315 318 315 311 313 322 331 336 340 340 334 325 316 297 275 266 262 259 252 242
86 81 80 82 79 74 71 68 62 56 55 54 51 47 41 33 33 43 50 55 57 58 59 60 60 61 60 58 58 57 57 58 59 59 59 59 61 63 61 56 55 58 64 71 74 74 74 74 70 65 57 43 30 24 19 10 1 357 350 337 328 322 319 319 319 320 321 319 318 326 342 351 354 352 345 339 337 334 324 307 290 273 258 251 246
90 83 80 80 77 74 73 69 64 59 56 55 52 48 43 38 36 39 43 50 53 54 57 60 60 60 59 57 56 58 59 61 64 65 64 61 60 61 64 65 64 61 60 65 70 72 70 67 61 57 51 39 24 17 14 10 5 360 353 348 347 342 337 333 327 322 322 326 336 341 340 348 355 351 344 343 349 351 351 359 360 306 257 234 211
97 88 82 80 78 78 75 71 67 63 60 59 55 49 44 43 39 37 40 46 51 54 56 58 58 57 57 57 55 56 60 65 70 72 73 72 71 69 67 67 68 69 69 71 74 75 75 72 66 58 50 38 24 20 22 22 18 11 6 4 360 354 350 346 335 328 333 339 337 318 308 321 357 3 357 357 6 18 29 41 51 66 93 108 123
112 103 92 82 77 77 76 72 68 66 63 63 60 52 47 45 41 38 40 42 43 47 51 51 50 47 43 45 52 54 54 60 71 78 80 79 78 76 75 73 71 69 69 72 76 79 83 86 82 74 69 63 49 39 34 30 26 20 14 9 2 355 352 351 350 349 347 339 320 306 323 348 1 14 20 16 23 43 57 62 69 80 94 102 107
132 123 105 91 79 74 73 69 66 65 63 62 63 60 54 50 46 42 42 42 39 39 41 41 42 39 30 27 37 45 48 53 61 72 84 87 82 76 72 71 72 72 71 72 75 77 79 81 80 75 69 62 51 41 34 28 25 23 18 12 8 6 3 9 20 16 346 323 318 328 352 1 4 29 44 43 46 57 67 77 81 84 92 100 103
Height
802 806 809 811 813 816 818 820 822 824 826 828 830 832 833 834 836 837 838 840 841 842 843 844 845 846 847 847 848 849 851 852 852 853 854 855 856 857 858 859 860 860 861 861 862 863 863 864 865 865 865 865 865 865 865 865 865 865 865 865 864 863 862 861 861 861 859 858 859 858 858 859 860 860 860 859 858 858 859 859 859 859 859 860 860
801 805 807 810 812 814 817 819 821 823 825 827 829 831 832 834 835 837 838 839 840 842 843 844 845 846 846 847 847 849 850 851 852 853 853 854 856 857 858 859 859 860 861 861 862 863 864 864 864 865 865 865 865 865 865 865 865 865 865 864 864 863 863 862 862 861 858 857 858 857 856 858 858 858 858 857 856 856 857 857 858 857 857 858 858
801 803 805 808 810 813 816 818 820 822 824 826 828 829 831 833 834 836 837 839 840 841 842 844 844 845 846 847 848 849 850 851 852 853 854 854 856 857 858 859 859 860 861 861 862 863 864 864 864 864 865 865 865 865 865 865 865 865 865 865 864 863 862 862 862 861 858 858 858 858 856 857 859 857 855 856 855 855 855 855 856 856 856 856 857
803 802 803 805 808 811 814 816 818 820 822 824 826 828 830 832 833 835 837 838 840 841 842 844 845 846 847 848 848 849 850 851 852 853 854 855 856 857 858 858 859 860 861 862 862 863 863 864 864 864 864 864 864 864 865 865 865 865 865 865 864 863 861 861 862 861 860 859 858 858 856 857 862 858 853 854 854 854 854 854 855 855 854 855 856
802 801 801 803 806 809 812 815 817 818 820 822 824 826 828 830 832 834 836 837 839 841 842 843 845 846 847 848 849 850 851 851 852 853 854 855 855 856 858 858 859 860 861 861 862 863 863 863 864 864 864 864 864 864 865 864 865 865 865 865 865 864 863 862 862 862 862 861 860 860 860 862 862 856 854 855 854 852 853 853 854 854 853 854 855
799 799 799 801 804 807 810 813 815 816 818 820 822 824 826 829 831 833 835 837 838 840 842 843 844 845 846 847 848 849 850 851 851 852 853 854 855 856 857 858 859 860 861 861 862 862 863 863 863 864 864 864 864 864 865 864 865 865 865 865 865 865 865 863 862 861 862 862 861 860 862 862 860 856 857 858 855 853 852 852 853 853 852 853 854
796 797 797 799 802 805 808 811 813 814 816 818 820 822 825 827 829 832 834 836 837 839 841 842 844 845 846 846 847 848 849 850 851 852 853 854 854 855 857 858 859 859 860 861 862 862 862 863 863 863 864 864 864 864 864 864 864 865 865 865 865 865 866 865 863 862 862 862 861 860 860 860 859 858 857 858 858 855 852 852 851 852 851 851 851
794 796 796 798 800 803 806 809 810 812 814 816 819 821 824 826 828 830 833 834 836 838 840 841 843 844 845 846 847 848 848 849 851 852 853 854 854 855 856 857 858 859 860 860 861 862 862 862 863 863 863 863 864 864 864 864 864 865 865 865 866 866 866 866 864 863 862 861 861 861 860 859 859 858 857 857 858 857 858 856 852 850 851 850 850
791 793 795 796 799 801 804 807 808 810 812 815 817 820 822 825 827 829 831 833 835 837 839 840 842 843 844 845 846 847 848 849 851 851 853 854 854 855 856 857 858 858 859 860 860 861 861 862 862 862 863 863 863 864 864 864 864 865 865 865 866 866 866 866 865 865 863 861 862 862 861 860 858 857 857 856 855 857 862 861 853 850 850 850 851
789 790 792 794 797 800 802 804 806 808 810 813 815 818 821 824 825 828 830 832 834 836 838 839 841 843 843 845 846 847 848 849 850 851 852 853 854 855 856 856 857 858 858 859 860 860 861 861 862 862 863 863 863 863 864 864 864 864 865 865 865 865 866 866 865 865 864 863 862 863 862 861 859 858 857 856 855 856 860 857 851 849 850 850 851
788 788 789 792 795 798 800 802 804 807 809 812 814 816 819 822 824 826 828 830 833 834 837 839 840 842 843 844 845 846 848 849 850 851 852 853 854 854 855 856 856 857 858 858 859 860 860 861 861 862 862 863 863 863 863 864 864 864 864 865 865 865 866 865 865 865 864 864 863 862 862 860 859 858 857 857 856 857 858 855 851 850 850 850 850
786 788 789 790 793 796 798 800 803 806 808 810 813 815 818 820 822 825 827 829 831 833 835 837 839 840 841 843 844 845 847 848 849 850 851 852 853 853 854 855 856 856 857 857 858 859 860 860 861 861 862 862 862 863 863 863 863 864 864 864 865 865 865 865 865 864 864 863 862 861 861 859 858 858 857 857 856 857 858 855 853 852 851 850 850
783 787 788 788 791 793 796 799 801 805 807 809 811 813 815 819 820 823 825 827 829 831 833 835 837 839 840 841 843 844 846 847 848 849 850 851 852 852 853 854 855 855 856 857 857 858 859 859 860 861 861 862 862 862 863 863 863 863 864 864 864 865 865 865 865 864 863 863 862 861 860 859 858 858 857 857 856 856 856 854 853 853 851 850 850
781 783 785 787 789 791 794 797 800 803 805 807 810 812 814 816 819 821 823 825 827 829 831 833 835 837 839 840 842 843 844 845 846 847 848 849 850 851 852 853 853 854 855 856 856 857 858 858 859 860 860 861 861 862 862 862 863 863 863 864 864 864 865 864 864 863 863 862 862 861 860 859 858 858 858 857 856 855 855 854 854 854 852 849 848
779 781 783 784 786 790 792 795 798 800 803 805 807 810 812 814 817 819 821 823 825 827 829 831 833 835 837 839 840 841 843 844 845 846 847 848 849 849 850 851 852 853 853 854 855 856 857 857 858 859 859 860 860 861 861 862 862 862 863 863 864 864 864 864 863 863 862 862 861 861 860 859 858 858 858 857 856 856 855 854 855 855 855 852 848
779 779 781 782 784 788 790 793 796 798 800 803 805 808 810 812 814 817 819 821 823 825 827 829 831 833 835 837 838 840 841 842 843 844 845 846 847 848 849 850 850 851 852 853 854 855 855 856 857 857 858 859 859 860 860 861 861 861 862 862 863 863 863 863 863 862 862 861 861 860 860 859 859 858 858 857 857 856 856 856 855 855 857 856 852
781 779 780 781 783 786 788 790 793 795 798 800 803 805 807 810 812 814 817 820 821 823 825 827 829 831 833 835 836 838 839 840 841 842 843 844 845 846 847 848 849 850 851 851 852 853 854 855 855 856 857 857 858 859 859 860 860 860 861 861 862 862 862 862 862 862 861 860 860 859 859 859 858 858 858 857 857 857 856 856 855 854 855 856 856
785 781 779 780 782 784 787 788 791 793 795 798 800 803 805 808 810 812 815 817 819 821 823 825 827 829 831 833 834 836 837 838 839 840 841 842 843 844 845 846 847 848 849 849 850 852 852 853 854 855 855 856 856 857 858 858 859 859 859 860 860 861 861 861 861 861 860 860 859 859 859 859 858 858 857 856 856 856 856 855 854 854 854 854 854
788 785 783 782 782 785 786 788 790 792 794 796 798 801 803 805 807 810 812 814 816 819 821 823 825 827 829 830 832 834 835 836 837 838 839 840 841 842 843 844 845 846 847 848 849 849 850 851 852 853 854 854 855 856 856 857 857 857 858 858 858 859 860 860 860 860 859 859 858 858 858 858 858 857 856 856 855 855 855 854 854 853 854 854 853
789 789 787 785 785 787 788 790 791 792 794 796 798 800 801 804 806 808 810 812 815 817 819 821 822 824 826 828 830 831 833 834 835 836 837 838 839 840 841 842 843 844 844 845 846 847 848 849 850 851 852 852 853 854 854 855 855 856 856 856 856 857 858 858 859 858 858 858 857 857 857 857 857 856 855 855 854 854 854 853 853 853 853 853 852
789 791 790 789 789 789 789 791 791 793 795 796 798 799 801 803 805 807 809 811 813 814 816 818 820 822 824 825 827 829 831 832 833 835 835 836 837 838 839 840 840 842 842 843 844 845 846 847 848 849 849 850 851 852 853 853 854 854 854 854 855 855 856 856 857 857 857 857 856 856 856 856 856 855 854 854 853 853 852 852 852 852 851 851 851
789 791 792 792 792 791 791 791 792 793 794 795 797 799 800 802 803 805 807 809 810 812 814 816 818 820 821 823 825 827 828 830 831 832 833 834 835 836 837 838 838 839 840 841 842 843 844 845 845 846 847 848 849 850 851 851 851 852 852 852 853 853 854 854 855 855 855 855 855 855 855 854 854 854 853 852 852 851 851 850 850 850 850 850 849
789 791 792 792 793 794 793 793 793 794 794 795 797 798 800 801 802 804 805 806 809 810 812 814 816 818 819 821 823 824 826 827 828 829 830 831 832 833 834 835 836 837 838 839 840 841 842 843 843 844 845 846 847 848 848 849 849 850 850 850 851 851 851 852 852 852 853 853 853 853 853 852 852 851 851 851 850 849 849 849 848 848 848 848 848
789 790 792 793 794 795 795 795 794 795 796 796 796 798 799 801 802 803 804 805 807 809 811 812 814 815 817 819 820 822 823 824 825 826 827 828 829 830 831 832 833 834 835 836 838 839 840 841 842 842 843 844 844 845 846 846 847 847 848 848 849 849 849 850 850 850 850 850 850 850 850 850 850 850 850 849 849 848 848 848 847 847 848 847 847
791 792 793 793 795 796 797 797 796 796 796 797 798 798 799 801 802 802 803 805 806 808 809 810 812 813 815 816 818 819 820 821 822 823 824 825 826 827 828 829 831 831 832 833 835 836 837 838 839 840 841 841 842 843 843 844 844 845 845 846 846 847 847 847 848 848 848 848 848 848 848 848 848 848 848 848 847 847 847 846 846 846 846 846 846
794 793 794 794 795 796 797 798 798 797 797 798 799 799 799 801 802 802 803 804 805 806 807 808 810 811 812 814 815 816 817 818 820 821 822 823 824 825 826 827 828 829 830 831 832 833 834 835 837 837 838 839 840 840 841 841 842 842 843 844 844 844 845 845 845 846 846 846 846 846 846 846 846 846 846 846 845 845 845 845 845 845 844 844 844
797 795 795 794 794 796 798 799 799 799 798 798 798 798 799 801 802 802 803 803 803 804 805 806 807 808 810 811 812 814 815 816 817 819 820 821 822 823 824 825 826 827 828 829 829 830 831 832 834 835 836 837 838 838 839 839 840 840 841 841 842 842 842 843 843 843 843 843 843 843 843 843 844 844 844 844 844 844 844 843 843 843 843 843 842
798 798 798 797 797 798 799 800 800 800 799 798 798 798 799 800 801 802 803 804 804 803 803 804 804 805 807 807 809 811 812 814 816 817 819 820 821 822 823 823 825 825 826 827 827 828 829 830 831 832 833 834 835 836 837 837 838 839 839 839 840 840 840 840 840 840 840 840 840 840 840 840 841 841 842 842 842 842 841 841 841 841 842 841 840
803 802 802 802 802 801 802 802 802 801 800 799 799 799 799 799 800 801 803 804 805 804 802 802 803 803 804 805 807 809 810 812 814 815 817 818 820 821 822 822 823 824 825 825 826 827 827 828 829 830 831 832 833 833 834 835 836 837 837 837 838 838 838 838 838 838 838 838 838 838 837 837 838 839 839 839 840 840 840 840 840 840 841 841 841
807 806 805 805 805 805 805 804 803 802 800 799 799 799 799 799 800 801 802 803 804 804 801 800 801 802 803 804 806 807 808 810 811 812 814 816 819 822 822 821 821 822 823 824 824 825 825 826 827 827 828 829 830 830 831 832 833 834 835 835 835 836 836 836 836 836 836 836 836 835 835 835 836 836 837 837 837 838 838 839 839 839 840 840 841
811 810 808 808 807 807 806 805 804 803 801 799 798 797 798 798 799 800 801 801 802 801 800 799 799 800 802 803 804 805 807 808 809 810 812 814 817 820 821 821 821 821 821 822 823 823 824 824 825 825 826 826 827 827 828 830 831 832 833 833 833 834 834 834 834 835 835 834 834 833 833 833 833 833 834 834 834 835 835 836 836 837 838 838 838
814 812 810 809 808 807 807 806 805 804 802 801 800 799 799 799 800 800 800 800 800 799 799 799 799 800 801 801 802 803 805 806 807 808 810 812 814 816 818 818 819 820 820 820 820 821 821 822 823 823 823 823 824 824 825 827 829 830 831 831 832 831 831 831 831 831 832 832 832 831 831 830 830 830 830 830 830 831 832 833 834 834 834 835 835
815 814 812 811 810 809 808 807 806 806 804 803 802 801 800 799 800 800 799 799 799 798 798 798 798 799 800 800 801 802 803 804 805 806 808 809 810 812 813 814 816 817 818 818 818 818 819 820 820 821 821 821 822 822 823 824 826 827 828 829 830 830 829 829 828 828 829 829 829 829 829 828 827 828 828 828 828 829 830 830 830 831 831 831 831
816 815 814 812 811 810 809 808 807 807 806 805 804 803 802 801 801 801 800 799 799 798 798 798 798 798 799 799 799 800 801 802 803 804 806 806 808 809 810 811 813 815 816 817 817 817 817 818 818 819 819 820 821 821 821 822 823 824 825 826 827 827 827 827 827 826 827 827 827 828 828 827 827 826 826 826 827 827 828 827 827 827 827 828 828
816 815 815 814 812 811 810 810 809 808 806 805 805 804 803 803 802 801 801 800 799 798 797 797 797 797 797 798 798 799 800 801 802 803 804 804 805 806 807 809 810 812 813 814 816 816 816 816 816 817 818 820 821 820 821 822 822 822 823 823 824 825 825 826 826 826 826 825 825 826 826 826 826 825 824 824 825 826 826 825 825 825 825 825 825
815 815 815 815 814 813 813 812 811 809 808 807 806 805 804 803 802 802 801 800 799 798 797 797 796 796 796 796 797 798 799 800 801 802 803 804 804 805 806 807 808 809 810 810 813 816 817 816 816 817 817 818 819 819 821 821 821 821 822 822 822 822 822 823 824 825 825 824 824 824 824 823 824 823 822 822 823 823 823 823 823 822 822 822 822
814 815 816 816 816 815 815 814 813 811 810 808 808 806 805 804 803 803 802 802 801 800 800 799 799 798 796 796 796 796 797 799 800 801 802 803 803 804 805 805 805 806 807 808 810 814 817 816 815 816 816 817 816 817 819 820 820 820 820 820 821 820 820 819 819 821 822 822 822 821 821 821 821 820 819 819 820 821 821 821 821 821 820 820 820
816 816 817 817 817 817 816 816 814 813 812 811 810 809 807 806 805 804 804 804 804 803 803 802 801 800 798 797 797 797 797 799 800 800 801 801 801 801 802 802 803 804 806 806 807 811 815 816 814 814 814 815 815 815 815 817 818 818 818 819 819 819 818 817 816 816 818 820 819 817 818 819 818 817 817 817 818 818 818 819 819 819 819 818 818
818 818 818 818 819 818 817 817 816 815 814 813 812 811 809 808 808 807 807 806 806 806 805 804 803 802 800 800 800 800 799 800 800 800 800 801 800 799 798 800 802 804 805 806 806 808 812 814 814 813 812 813 814 814 814 815 815 816 817 817 818 818 818 816 814 814 814 815 815 814 814 815 814 814 815 815 815 815 816 816 816 816 816 815 815
819 820 820 820 820 819 818 817 816 816 815 815 814 813 812 811 811 810 809 809 809 809 807 806 805 805 803 803 802 802 801 801 800 800 800 803 803 800 798 799 802 804 805 806 805 807 810 812 812 811 811 813 813 812 812 812 813 814 815 815 816 816 816 816 814 813 813 813 813 813 813 812 811 812 812 812 813 813 813 814 814 814 813 813 813
822 821 821 821 820 820 819 819 818 817 817 817 816 815 815 814 814 813 812 812 812 811 810 809 808 806 806 805 805 804 803 802 802 803 804 805 804 802 800 801 803 803 803 804 804 805 808 810 810 810 811 812 813 812 811 811 812 813 814 814 814 814 815 815 814 814 813 813 812 813 812 810 809 809 809 809 810 810 810 811 811 810 810 810 810
824 823 822 822 822 822 821 821 820 819 818 818 818 817 817 816 816 815 815 815 814 814 813 811 810 809 808 808 807 807 806 806 806 807 807 807 806 804 803 803 804 804 802 802 803 805 808 810 810 810 811 812 813 813 812 811 812 812 813 814 814 814 814 815 815 814 813 812 811 812 811 809 807 806 806 806 806 807 807 806 806 806 807 807 807
825 825 824 823 823 823 823 823 822 821 821 820 819 819 818 818 818 817 818 817 816 816 815 814 813 812 811 811 810 809 809 809 809 809 809 809 808 807 806 806 806 805 802 801 802 805 807 809 810 811 812 813 814 813 812 812 812 813 813 813 813 813 814 815 815 814 812 811 811 810 809 807 805 804 803 802 802 802 802 801 801 802 804 804 805
826 826 825 825 825 825 825 825 824 824 823 822 822 821 821 820 820 820 820 819 818 818 817 817 816 816 815 814 813 812 811 811 812 812 811 811 811 810 809 808 806 805 802 801 802 805 807 808 810 812 814 815 814 814 813 812 812 813 813 813 813 814 815 815 815 813 811 810 810 808 807 805 803 802 800 799 798 797 797 797 798 799 801 801 802
827 828 827 827 827 826 826 826 825 826 825 824 823 823 823 823 823 822 822 821 820 820 819 819 818 818 817 817 816 815 814 814 814 813 812 812 811 810 810 809 808 807 805 804 805 807 808 810 812 813 814 815 814 813 813 813 813 813 813 813 814 814 814 814 813 812 810 809 808 806 804 803 801 799 798 796 795 793 793 793 794 796 797 797 797
828 828 828 828 828 828 827 827 827 827 827 826 825 825 825 825 825 824 823 823 822 822 821 821 820 820 819 819 818 818 817 816 816 815 814 813 813 812 812 812 812 811 811 810 811 811 812 813 813 814 814 814 813 814 814 814 814 814 813 813 813 813 813 812 810 809 808 807 806 805 803 801 800 798 797 796 794 792 791 790 791 792 793 794 794
829 829 829 829 829 829 829 829 829 829 828 827 827 827 827 827 826 826 825 824 824 823 822 822 822 821 821 821 820 820 820 819 818 817 817 816 815 815 815 815 815 815 815 814 814 814 814 814 815 815 815 815 815 815 814 814 814 814 813 813 812 812 811 810 809 808 807 806 805 803 802 801 800 798 797 796 794 793 791 790 790 790 790 791 791
830 830 831 831 830 831 831 831 831 830 830 829 829 829 829 829 828 827 827 826 825 825 824 824 824 823 823 823 822 822 822 821 821 820 819 819 819 819 818 818 818 818 817 817 817 816 816 816 815 815 816 816 817 816 815 815 814 814 813 812 811 811 810 809 808 808 806 805 804 802 801 801 800 799 798 797 796 795 793 791 790 790 790 790 791
831 831 832 832 832 832 832 832 832 832 831 831 831 831 831 830 830 829 828 828 827 826 826 826 825 825 825 825 824 824 824 824 824 823 822 822 822 822 822 821 820 820 819 819 818 818 818 818 817 817 817 817 817 817 816 816 815 814 813 812 811 810 809 809 808 807 806 805 803 803 802 801 800 800 799 798 797 796 794 793 792 791 791 792 792
831 832 832 832 833 833 833 833 833 832 832 833 833 833 833 832 832 831 830 830 829 828 827 827 826 826 826 826 825 826 826 825 825 825 825 825 824 824 823 823 822 822 821 820 820 820 820 819 819 819 819 819 819 818 817 816 815 814 813 812 811 810 809 808 807 806 806 805 804 803 802 801 801 800 800 799 799 797 796 796 795 795 794 794 795
832 832 832 833 833 833 833 833 833 833 833 834 834 834 834 833 833 832 832 831 830 830 829 828 828 828 828 827 827 827 827 827 827 827 827 827 827 826 825 825 824 824 823 822 822 821 821 821 821 821 820 820 819 818 817 816 815 814 813 812 811 810 808 807 807 806 806 805 804 804 803 802 802 801 801 801 800 799 799 798 798 799 799 798 799